Caldwell, NJ

9:40 AM EDT on September 18, 2019 (GMT -0400)
Essex County

Weather History for KCDW - May, 2019

Change the Weather History Date:

Friday, May 17, 2019

  Actual Average Record
Temperature  
Mean Temperature 66 °F -  
Max Temperature 79 °F 70 °F 93 °F (2017)
Min Temperature 53 °F 47 °F 33 °F (1956)
Growing Degree Days 16 (Base 50)    
Moisture  
Dew Point 56 °F    
Average Humidity 70    
Maximum Humidity 100    
Minimum Humidity 45    
Precipitation  
Precipitation 0.07 in - - ()
Sea Level Pressure  
Sea Level Pressure 29.80 in    
Wind  
Wind Speed 2 mph (West)    
Max Wind Speed 8 mph    
Max Gust Speed -    
Visibility 9 miles    
Events Rain    
Averages and records for this station are not official NWS values.
T = Trace of Precipitation, MM = Missing Value Source: NWS Daily Summary

Daily Weather History Graph

Daily Weather History Graph

Search for Another Location

Airport or City:

Astronomy

May. 17, 2019 Rise Set
Actual Time 5:38 AM EDT 8:09 PM EDT
Civil Twilight 5:06 AM EDT 8:41 PM EDT
Nautical Twilight 4:27 AM EDT 9:20 PM EDT
Astronomical Twilight 3:43 AM EDT 10:04 PM EDT
Moon 6:53 PM EDT (5/17) 5:09 AM EDT (5/17)
Length of Visible Light 15h 34m
Length of Day
14h 31m
Waxing Gibbous, 98% of the Moon is Illuminated
May 17
Waxing Gibbous
May 18
Full
May 26
Last Quarter
Jun 3
New
Jun 10
First Quarter

Hourly Weather History & Observations

Time (EDT) Temp. Dew Point Humidity Pressure Visibility Wind Dir Wind Speed Gust Speed Precip Events Conditions
12:53 AM 57.0 °F 48.0 °F 72% 29.89 in 10.0 mi Calm Calm - N/A   Overcast
1:53 AM 55.0 °F 48.9 °F 80% 29.87 in 10.0 mi Calm Calm - N/A   Clear
2:53 AM 55.0 °F 48.9 °F 80% 29.86 in 10.0 mi Calm Calm - N/A   Mostly Cloudy
3:53 AM 53.1 °F 48.9 °F 86% 29.84 in 10.0 mi Calm Calm - N/A   Clear
4:53 AM 54.0 °F 51.1 °F 90% 29.83 in 10.0 mi WNW 3.5 mph - N/A   Mostly Cloudy
5:53 AM 55.0 °F 50.0 °F 83% 29.83 in 10.0 mi Calm Calm - N/A   Partly Cloudy
6:53 AM 57.0 °F 51.1 °F 81% 29.83 in 10.0 mi Calm Calm - N/A   Clear
7:53 AM 64.0 °F 53.1 °F 67% 29.83 in 10.0 mi Variable 4.6 mph - N/A   Clear
8:53 AM 68.0 °F 53.1 °F 59% 29.82 in 10.0 mi Variable 3.5 mph - N/A   Clear
9:53 AM 72.0 °F 54.0 °F 53% 29.79 in 10.0 mi Variable 5.8 mph - N/A   Clear
10:53 AM 73.0 °F 53.1 °F 49% 29.79 in 10.0 mi SSW 4.6 mph - N/A   Clear
11:53 AM 75.9 °F 53.1 °F 45% 29.78 in 10.0 mi Variable 3.5 mph - N/A   Mostly Cloudy
12:53 PM 72.0 °F 57.9 °F 61% 29.77 in 10.0 mi Calm Calm - 0.00 in   Overcast
1:53 PM 73.9 °F 55.0 °F 52% 29.76 in 10.0 mi WSW 6.9 mph - 0.00 in   Overcast
2:53 PM 75.9 °F 55.9 °F 50% 29.73 in 10.0 mi Variable 5.8 mph - N/A   Mostly Cloudy
3:53 PM 77.0 °F 55.9 °F 48% 29.73 in 10.0 mi Variable 5.8 mph - N/A   Mostly Cloudy
4:53 PM 78.1 °F 55.9 °F 46% 29.73 in 10.0 mi WNW 8.1 mph - N/A   Mostly Cloudy
5:53 PM 78.1 °F 57.0 °F 48% 29.74 in 10.0 mi West 8.1 mph - N/A   Clear
6:53 PM 78.1 °F 57.0 °F 48% 29.74 in 10.0 mi Calm Calm - N/A   Clear
7:53 PM 75.9 °F 59.0 °F 56% 29.75 in 8.0 mi Calm Calm - 0.00 in Rain Light Rain
8:53 PM 68.0 °F 66.0 °F 93% 29.78 in 10.0 mi Calm Calm - 0.00 in   Overcast
9:14 PM 66.9 °F 64.9 °F 93% 29.80 in 2.5 mi Variable 4.6 mph - 0.07 in Rain Light Rain
9:22 PM 66.9 °F 64.9 °F 93% 29.80 in 9.0 mi Calm Calm - 0.07 in Rain Light Rain
9:53 PM 66.9 °F 64.9 °F 93% 29.82 in 8.0 mi WSW 3.5 mph - 0.07 in   Overcast
10:53 PM 66.0 °F 66.0 °F 100% 29.83 in 5.0 mi Calm Calm - N/A   Mostly Cloudy
11:53 PM 63.0 °F 60.1 °F 90% 29.86 in 10.0 mi Calm Calm - N/A   Partly Cloudy